When you browse on this site, cookies collect data to enhance your experience and personalize the content and advertising you see.
Visit our Privacy Policy to learn more. By continuing to use the site, you agree to this use of cookies and data.
  • In Schweiz
  • Länderverzeichnis
  • Für 7 Tage
  • Wassertemperatur
  • Wetterkarte
  • Widgets
  • user-avatar
    Anmelden

    Stündliche Wetter die Vatikanstadt

    Heute, 12 Dezember, Donnerstag

    Zeit Temperatur Niederschläge Wind Luftdruck Luftfeuchtigkeit
    00:00 +8°C° 0 mm 2 m/S 755 mmHg 67%
    01:00 +8°C° 0 mm 2 m/S 754 mmHg 66%
    02:00 +8°C° 0 mm 2 m/S 754 mmHg 67%
    03:00 +8°C° 0 mm 2 m/S 753 mmHg 69%
    04:00 +9°C° 0 mm 1 m/S 753 mmHg 70%
    05:00 +8°C° 0.7 mm 2 m/S 752 mmHg 71%
    06:00 +8°C° 0.7 mm 3 m/S 752 mmHg 71%
    07:00 +9°C° 0 mm 3 m/S 752 mmHg 73%
    08:00 +9°C° 0.4 mm 2 m/S 752 mmHg 71%
    09:00 +9°C° 0.4 mm 2 m/S 751 mmHg 68%
    10:00 +10°C° 0.4 mm 2 m/S 751 mmHg 66%
    11:00 +10°C° 0 mm 2 m/S 751 mmHg 65%
    12:00 +12°C° 0 mm 2 m/S 751 mmHg 64%
    13:00 +12°C° 0 mm 3 m/S 751 mmHg 66%
    14:00 +12°C° 0.1 mm 3 m/S 751 mmHg 66%
    15:00 +13°C° 0.1 mm 2 m/S 751 mmHg 66%
    16:00 +13°C° 0.1 mm 2 m/S 750 mmHg 65%
    17:00 +11°C° 0.2 mm 3 m/S 751 mmHg 66%
    18:00 +11°C° 0.2 mm 3 m/S 751 mmHg 67%
    19:00 +10°C° 0.2 mm 3 m/S 751 mmHg 68%
    20:00 +10°C° 0.1 mm 3 m/S 751 mmHg 69%
    21:00 +10°C° 0.1 mm 2 m/S 751 mmHg 69%
    22:00 +9°C° 0.1 mm 2 m/S 751 mmHg 70%
    23:00 +9°C° 0 mm 2 m/S 751 mmHg 70%

    Morgen, 13 Dezember, Freitag

    Zeit Temperatur Niederschläge Wind Luftdruck Luftfeuchtigkeit
    00:00 +9°C° 0 mm 2 m/S 751 mmHg 69%
    01:00 +9°C° 0 mm 2 m/S 751 mmHg 69%
    02:00 +9°C° 0 mm 3 m/S 750 mmHg 68%
    03:00 +9°C° 0 mm 3 m/S 749 mmHg 67%
    04:00 +8°C° 0 mm 4 m/S 749 mmHg 67%
    05:00 +8°C° 1 mm 5 m/S 748 mmHg 72%
    06:00 +9°C° 1 mm 5 m/S 748 mmHg 77%
    07:00 +9°C° 1 mm 6 m/S 747 mmHg 82%
    08:00 +9°C° 0.4 mm 7 m/S 747 mmHg 81%
    09:00 +10°C° 0.4 mm 8 m/S 746 mmHg 80%
    10:00 +11°C° 0.4 mm 10 m/S 745 mmHg 79%
    11:00 +11°C° 0.8 mm 10 m/S 744 mmHg 80%
    12:00 +12°C° 0.8 mm 10 m/S 743 mmHg 81%
    13:00 +12°C° 0.8 mm 10 m/S 742 mmHg 83%
    14:00 +13°C° 1.2 mm 12 m/S 741 mmHg 81%
    15:00 +13°C° 1.2 mm 14 m/S 739 mmHg 80%
    16:00 +13°C° 1.2 mm 16 m/S 738 mmHg 78%
    17:00 +13°C° 0.6 mm 16 m/S 738 mmHg 72%
    18:00 +13°C° 0.6 mm 16 m/S 738 mmHg 66%
    19:00 +11°C° 0.6 mm 16 m/S 738 mmHg 60%
    20:00 +11°C° 0.2 mm 16 m/S 738 mmHg 60%
    21:00 +10°C° 0.2 mm 15 m/S 738 mmHg 61%
    22:00 +9°C° 0.2 mm 15 m/S 739 mmHg 62%
    23:00 +9°C° 0 mm 15 m/S 739 mmHg 58%

    übermorgen, 14 Dezember, Samstag

    Zeit Temperatur Niederschläge Wind Luftdruck Luftfeuchtigkeit
    00:00 +9°C° 0 mm 15 m/S 740 mmHg 54%
    01:00 +9°C° 0 mm 15 m/S 741 mmHg 50%
    02:00 +8°C° 0 mm 15 m/S 742 mmHg 52%
    03:00 +8°C° 0 mm 14 m/S 743 mmHg 54%
    04:00 +7°C° 0 mm 13 m/S 744 mmHg 56%
    05:00 +7°C° 0 mm 12 m/S 745 mmHg 55%
    06:00 +7°C° 0 mm 11 m/S 746 mmHg 55%
    07:00 +7°C° 0 mm 11 m/S 748 mmHg 54%
    08:00 +7°C° 0 mm 10 m/S 749 mmHg 53%
    09:00 +8°C° 0 mm 9 m/S 750 mmHg 52%
    10:00 +9°C° 0 mm 8 m/S 751 mmHg 51%
    11:00 +10°C° 0 mm 7 m/S 751 mmHg 47%
    12:00 +11°C° 0 mm 6 m/S 752 mmHg 43%
    13:00 +13°C° 0 mm 4 m/S 752 mmHg 40%
    14:00 +13°C° 0 mm 4 m/S 753 mmHg 43%
    15:00 +13°C° 0 mm 3 m/S 753 mmHg 46%
    16:00 +12°C° 0 mm 3 m/S 754 mmHg 49%
    17:00 +12°C° 0 mm 3 m/S 755 mmHg 50%
    18:00 +11°C° 0 mm 3 m/S 755 mmHg 52%
    19:00 +12°C° 0 mm 2 m/S 756 mmHg 53%
    20:00 +10°C° 0 mm 3 m/S 757 mmHg 54%
    21:00 +10°C° 0 mm 3 m/S 757 mmHg 55%
    22:00 +10°C° 0 mm 3 m/S 758 mmHg 56%
    23:00 +10°C° 0 mm 3 m/S 758 mmHg 55%

    15 Dezember, Sonntag

    Zeit Temperatur Niederschläge Wind Luftdruck Luftfeuchtigkeit
    00:00 +10°C° 0 mm 2 m/S 758 mmHg 54%
    01:00 +10°C° 0 mm 2 m/S 758 mmHg 53%
    02:00 +10°C° 0 mm 2 m/S 758 mmHg 55%
    03:00 +10°C° 0 mm 3 m/S 758 mmHg 56%
    04:00 +10°C° 0 mm 3 m/S 758 mmHg 58%
    05:00 +11°C° 0 mm 4 m/S 759 mmHg 60%
    06:00 +11°C° 0 mm 4 m/S 759 mmHg 63%
    07:00 +11°C° 0 mm 4 m/S 760 mmHg 66%
    08:00 +12°C° 0 mm 4 m/S 760 mmHg 68%
    09:00 +13°C° 0 mm 5 m/S 760 mmHg 70%
    10:00 +13°C° 0 mm 5 m/S 761 mmHg 72%
    11:00 +14°C° 0 mm 4 m/S 761 mmHg 73%
    12:00 +14°C° 0 mm 4 m/S 761 mmHg 74%
    13:00 +14°C° 0 mm 3 m/S 761 mmHg 75%
    14:00 +14°C° 0 mm 3 m/S 761 mmHg 75%
    15:00 +14°C° 0 mm 3 m/S 761 mmHg 76%
    16:00 +14°C° 0 mm 3 m/S 761 mmHg 76%
    17:00 +14°C° 0 mm 3 m/S 762 mmHg 77%
    18:00 +14°C° 0 mm 4 m/S 762 mmHg 79%
    19:00 +13°C° 0 mm 4 m/S 762 mmHg 80%
    20:00 +13°C° 0 mm 4 m/S 763 mmHg 80%
    21:00 +13°C° 0 mm 5 m/S 763 mmHg 79%
    22:00 +12°C° 0 mm 5 m/S 763 mmHg 79%
    23:00 +12°C° 0 mm 5 m/S 763 mmHg 79%

    16 Dezember, Montag

    Zeit Temperatur Niederschläge Wind Luftdruck Luftfeuchtigkeit
    00:00 +12°C° 0 mm 5 m/S 763 mmHg 79%
    01:00 +11°C° 0 mm 6 m/S 763 mmHg 78%
    02:00 +11°C° 0 mm 6 m/S 763 mmHg 78%
    03:00 +11°C° 0 mm 6 m/S 763 mmHg 77%
    04:00 +11°C° 0 mm 6 m/S 763 mmHg 77%
    05:00 +11°C° 0 mm 6 m/S 763 mmHg 78%
    06:00 +11°C° 0 mm 6 m/S 763 mmHg 79%
    07:00 +11°C° 0 mm 7 m/S 763 mmHg 80%
    08:00 +12°C° 0 mm 7 m/S 763 mmHg 80%
    09:00 +12°C° 0 mm 7 m/S 764 mmHg 79%
    10:00 +14°C° 0 mm 7 m/S 764 mmHg 78%
    11:00 +15°C° 0 mm 7 m/S 763 mmHg 76%
    12:00 +16°C° 0 mm 7 m/S 763 mmHg 74%
    13:00 +16°C° 0 mm 7 m/S 763 mmHg 72%
    14:00 +16°C° 0 mm 8 m/S 762 mmHg 74%
    15:00 +16°C° 0 mm 8 m/S 762 mmHg 75%
    16:00 +16°C° 0 mm 8 m/S 762 mmHg 77%
    17:00 +15°C° 0 mm 8 m/S 762 mmHg 77%
    18:00 +13°C° 0 mm 9 m/S 762 mmHg 78%
    19:00 +13°C° 0 mm 9 m/S 762 mmHg 79%
    20:00 +13°C° 0 mm 9 m/S 762 mmHg 76%
    21:00 +13°C° 0 mm 9 m/S 762 mmHg 73%
    22:00 +13°C° 0 mm 9 m/S 762 mmHg 71%
    23:00 +13°C° 0 mm 10 m/S 762 mmHg 69%

    17 Dezember, Dienstag

    Zeit Temperatur Niederschläge Wind Luftdruck Luftfeuchtigkeit
    00:00 +13°C° 0 mm 10 m/S 762 mmHg 67%
    01:00 +13°C° 0 mm 10 m/S 762 mmHg 65%
    02:00 +13°C° 0 mm 10 m/S 762 mmHg 65%
    03:00 +13°C° 0 mm 10 m/S 762 mmHg 66%
    04:00 +13°C° 0 mm 10 m/S 762 mmHg 67%
    05:00 +13°C° 0 mm 9 m/S 762 mmHg 67%
    06:00 +13°C° 0 mm 9 m/S 762 mmHg 67%
    07:00 +13°C° 0 mm 9 m/S 762 mmHg 67%
    08:00 +15°C° 0 mm 9 m/S 762 mmHg 68%
    09:00 +15°C° 0 mm 8 m/S 763 mmHg 69%
    10:00 +16°C° 0 mm 8 m/S 763 mmHg 69%
    11:00 +16°C° 0 mm 8 m/S 763 mmHg 70%
    12:00 +16°C° 0 mm 8 m/S 762 mmHg 71%
    13:00 +17°C° 0 mm 8 m/S 762 mmHg 72%
    14:00 +16°C° 0 mm 7 m/S 762 mmHg 75%
    15:00 +16°C° 0 mm 7 m/S 762 mmHg 77%
    16:00 +16°C° 0 mm 7 m/S 762 mmHg 79%
    17:00 +15°C° 0 mm 7 m/S 763 mmHg 79%
    18:00 +15°C° 0 mm 7 m/S 763 mmHg 79%
    19:00 +15°C° 0 mm 8 m/S 763 mmHg 79%
    20:00 +14°C° 0 mm 7 m/S 763 mmHg 79%
    21:00 +14°C° 0 mm 7 m/S 764 mmHg 78%
    22:00 +14°C° 0 mm 6 m/S 764 mmHg 78%
    23:00 +14°C° 0 mm 6 m/S 764 mmHg 77%
    Mehr zeigen